User: anonymous   Login
Location: Caltech
(34.1382°N, 118.1253°W)
Time: 05:10:56
(UTC-07:00)
Language:

OPAL - Orbit

View from above orbital plane
View from above orbital plane
View from above satellite
View from above satellite

Ground track
Ground track

The orbit data is extracted from the following two-line orbital elements,

1 26063U 00004C   17116.89224284 +.00000010 +00000-0 +23313-4 0  9993
2 26063 100.2281 110.9374 0037213 093.0799 267.4641 14.36660604903818
Epoch (UTC): 26 April 2017 21:24:49
Eccentricity: 0.0037213
inclination: 100.2281°
perigee height: 743 km
apogee height: 796 km
right ascension of ascending node: 110.9374°
argument of perigee: 93.0799°
revolutions per day: 14.36660604
mean anomaly at epoch: 267.4641°
orbit number at epoch: 90381

The dashed part of the orbit path shows where the satellite is in the earth's shadow,  

DLR